CW8946 Weather Reports


time (UTC)temp
F
wind
direction
speed
knots
gust
knots
rain 1hr
in
rain 24hr
in
rain mn
in
humidity
%
barometer
mb
20260508233624 76 241 2.6 7.0 0.00 0.00 0.00 22 1012.1
20260508232647 76 360 3.5 7.8 0.00 0.00 0.00 21 1012.2
20260508231627 76 200 7.0 9.6 0.00 0.00 0.00 22 1012.2
20260508230634 76 213 1.7 9.6 0.00 0.00 0.00 22 1012.3
20260508225649 76 203 4.3 7.8 0.00 0.00 0.00 22 1012.4
20260508224622 76 360 2.6 7.0 0.00 0.00 0.00 23 1012.4
20260508223628 75 236 2.6 7.0 0.00 0.00 0.00 22 1012.6
20260508222613 76 360 5.2 8.7 0.00 0.00 0.00 23 1012.7
20260508221622 76 184 5.2 7.8 0.00 0.00 0.00 22 1012.9
20260508220631 76 169 2.6 9.6 0.00 0.00 0.00 22 1013.1
20260508215625 76 360 5.2 8.7 0.00 0.00 0.00 21 1013.2
20260508214635 76 360 3.5 8.7 0.00 0.00 0.00 23 1013.3
20260508213620 76 360 2.6 9.6 0.00 0.00 0.00 22 1013.4
20260508212633 76 360 7.0 9.6 0.00 0.00 0.00 23 1013.5
20260508211616 75 360 2.6 15.6 0.00 0.00 0.00 23 1013.7
20260508210624 75 360 2.6 12.2 0.00 0.00 0.00 22 1013.8
20260508205625 75 336 2.6 11.3 0.00 0.00 0.00 23 1013.9
20260508204616 75 360 2.6 9.6 0.00 0.00 0.00 23 1014.0
20260508203627 75 360 3.5 7.8 0.00 0.00 0.00 25 1014.1
20260508202613 74 360 2.6 13.0 0.00 0.00 0.00 25 1014.1
20260508201623 74 208 1.7 7.0 0.00 0.00 0.00 26 1014.2
20260508200614 74 360 2.6 11.3 0.00 0.00 0.00 24 1014.3
20260508195618 74 360 4.3 7.8 0.00 0.00 0.00 23 1014.4
20260508194624 74 320 3.5 7.0 0.00 0.00 0.00 24 1014.4
20260508193613 73 360 3.5 7.8 0.00 0.00 0.00 27 1014.4
20260508192622 72 360 5.2 8.7 0.00 0.00 0.00 31 1014.5
20260508191615 72 360 2.6 8.7 0.00 0.00 0.00 33 1014.6
20260508190615 72 360 2.6 7.8 0.00 0.00 0.00 32 1014.7
20260508185616 71 360 4.3 10.4 0.00 0.00 0.00 33 1014.7
20260508184621 71 360 1.7 7.8 0.00 0.00 0.00 35 1014.7
20260508183630 70 360 5.2 7.0 0.00 0.00 0.00 36 1014.8
20260508182617 70 360 4.3 7.8 0.00 0.00 0.00 35 1015.0
20260508181626 69 360 2.6 8.7 0.00 0.00 0.00 35 1015.1
20260508180617 70 360 5.2 8.7 0.00 0.00 0.00 36 1015.1
20260508175622 70 197 1.7 7.8 0.00 0.00 0.00 34 1015.2
20260508174631 69 360 2.6 7.0 0.00 0.00 0.00 32 1015.3
20260508173616 69 360 3.5 7.0 0.00 0.00 0.00 36 1015.3
20260508172621 68 360 3.5 8.7 0.00 0.00 0.00 39 1015.3
20260508171612 68 267 3.5 7.0 0.00 0.00 0.00 41 1015.4
20260508170641 68 150 2.6 5.2 0.00 0.00 0.00 44 1015.4
20260508165612 67 225 3.5 5.2 0.00 0.00 0.00 45 1015.3
20260508164617 67 360 3.5 9.6 0.00 0.00 0.00 47 1015.4
20260508163622 67 360 4.3 8.7 0.00 0.00 0.00 46 1015.2
20260508162616 66 182 4.3 7.0 0.00 0.00 0.00 46 1015.3
20260508161626 65 194 2.6 4.3 0.00 0.00 0.00 50 1015.2
20260508160615 65 360 2.6 5.2 0.00 0.00 0.00 56 1015.1
20260508155624 64 360 2.6 5.2 0.00 0.00 0.00 57 1015.2
20260508154613 64 215 4.3 7.0 0.00 0.00 0.00 57 1015.1
20260508153618 64 218 2.6 5.2 0.00 0.00 0.00 57 1015.0
20260508152628 63 360 2.6 4.3 0.00 0.00 0.00 58 1014.9
20260508151614 63 205 0.9 3.5 0.00 0.00 0.00 59 1015.0
20260508150626 62 360 1.7 3.5 0.00 0.00 0.00 56 1014.9
20260508145621 61 360 0.9 2.6 0.00 0.00 0.00 58 1014.9
20260508144642 59 24 0.9 1.7 0.00 0.00 0.00 58 1014.8
20260508143613 58 360 0.9 2.6 0.00 0.00 0.00 61 1014.7
20260508142642 57 360 0.9 2.6 0.00 0.00 0.00 61 1014.7
20260508141613 55 340 0.0 0.9 0.00 0.00 0.00 60 1014.6
20260508140648 53 360 0.0 0.9 0.00 0.00 0.00 62 1014.6
20260508135627 52 360 0.0 0.0 0.00 0.00 0.00 71 1014.5
20260508134630 50 360 0.0 0.9 0.00 0.00 0.00 71 1014.4
20260508133618 50 360 1.7 2.6 0.00 0.00 0.00 69 1014.3
20260508132622 49 360 0.0 1.7 0.00 0.00 0.00 71 1014.2
20260508131629 48 331 1.7 4.3 0.00 0.00 0.00 70 1014.1
20260508130626 47 360 0.0 4.3 0.00 0.00 0.00 72 1013.9
20260508125639 46 360 0.0 1.7 0.00 0.00 0.00 69 1013.8
20260508124628 47 360 2.6 3.5 0.00 0.00 0.00 70 1013.7
20260508123637 46 360 1.7 2.6 0.00 0.00 0.00 71 1013.6
20260508122620 47 360 0.0 0.0 0.00 0.00 0.00 70 1013.4
20260508121630 47 360 0.0 0.9 0.00 0.00 0.00 69 1013.4
20260508120622 47 360 0.0 0.9 0.00 0.00 0.00 69 1013.3
20260508115614 47 360 0.0 0.0 0.00 0.00 0.00 69 1013.2
20260508114617 47 360 0.0 0.9 0.00 0.00 0.00 67 1013.0
20260508113626 48 360 0.0 2.6 0.00 0.00 0.00 67 1013.0
20260508112617 49 360 0.0 2.6 0.00 0.00 0.00 67 1013.0
20260508111626 49 360 0.0 0.9 0.00 0.00 0.00 66 1013.0
20260508110628 49 360 0.0 0.0 0.00 0.00 0.00 66 1012.9
20260508105624 49 360 0.0 0.9 0.00 0.00 0.00 67 1012.9
20260508104618 49 360 0.0 0.0 0.00 0.00 0.00 67 1012.8
20260508103643 49 360 0.0 0.0 0.00 0.00 0.00 68 1012.7
20260508102627 49 360 0.0 1.7 0.00 0.00 0.00 69 1012.7
20260508101631 48 360 0.9 2.6 0.00 0.00 0.00 69 1012.7
20260508100622 48 313 0.0 0.0 0.00 0.00 0.00 69 1012.6
20260508095622 48 313 0.0 0.0 0.00 0.00 0.00 69 1012.6
20260508094628 48 313 0.0 0.9 0.00 0.00 0.00 69 1012.6
20260508093617 48 360 1.7 2.6 0.00 0.00 0.00 68 1012.6
20260508092625 49 360 0.0 1.7 0.00 0.00 0.00 68 1012.6
20260508091632 49 360 0.0 0.9 0.00 0.00 0.00 69 1012.6
20260508090615 48 360 0.0 0.9 0.00 0.00 0.00 68 1012.6
20260508085649 49 360 0.0 1.7 0.00 0.00 0.00 66 1012.6
20260508084617 50 360 0.0 0.0 0.00 0.00 0.00 65 1012.7
20260508083629 50 360 0.0 0.0 0.00 0.00 0.00 66 1012.7
20260508082617 51 360 0.0 0.0 0.00 0.00 0.00 65 1012.6
20260508081618 51 311 0.0 0.9 0.00 0.00 0.00 65 1012.6
20260508080625 51 360 0.0 1.7 0.00 0.00 0.00 64 1012.6
20260508075626 52 360 0.9 1.7 0.00 0.00 0.00 65 1012.6
20260508074632 52 360 0.0 0.0 0.00 0.00 0.00 64 1012.6
20260508073635 52 360 0.0 0.0 0.00 0.00 0.00 64 1012.5
20260508072616 52 311 0.0 0.0 0.00 0.00 0.00 64 1012.4
20260508071639 52 360 0.0 0.0 0.00 0.00 0.00 61 1012.5
20260508070647 53 360 0.0 0.0 0.00 0.00 0.00 61 1012.6
20260508065619 53 360 0.0 0.9 0.00 0.00 0.00 62 1012.4
20260508064623 52 313 0.9 1.7 0.00 0.00 0.00 64 1012.4
20260508063650 52 360 0.0 1.7 0.00 0.00 0.00 63 1012.4
20260508062617 52 360 1.7 1.7 0.00 0.00 0.00 60 1012.3
20260508061625 54 360 1.7 2.6 0.00 0.00 0.00 59 1012.2
20260508060646 55 313 0.0 1.7 0.00 0.00 0.00 57 1012.2
20260508055627 57 313 0.0 0.9 0.00 0.00 0.00 55 1012.2
20260508054615 57 313 0.0 2.6 0.00 0.00 0.00 54 1012.2
20260508053622 58 313 0.9 2.6 0.00 0.00 0.00 53 1012.2
20260508052627 58 313 0.0 2.6 0.00 0.00 0.00 51 1012.1
20260508051618 58 313 0.0 5.2 0.00 0.00 0.00 50 1012.1
20260508050619 59 49 0.0 0.0 0.00 0.00 0.00 49 1012.0
20260508045627 60 49 0.0 0.9 0.00 0.00 0.00 48 1012.0
20260508044630 60 49 0.9 1.7 0.00 0.00 0.00 47 1011.9
20260508043621 60 360 1.7 4.3 0.00 0.00 0.00 48 1011.9
20260508042623 60 360 0.0 0.0 0.00 0.00 0.00 48 1011.8
20260508041625 60 360 0.0 0.0 0.00 0.00 0.00 47 1011.7
20260508040616 60 229 0.0 0.0 0.00 0.00 0.00 47 1011.7
20260508035635 61 230 0.0 1.7 0.00 0.00 0.00 46 1011.6
20260508034616 62 229 0.0 1.7 0.00 0.00 0.00 44 1011.6
20260508033621 64 230 0.0 0.9 0.00 0.00 0.00 42 1011.4
20260508032630 65 230 0.0 0.0 0.00 0.00 0.00 41 1011.2
20260508031644 66 230 0.0 0.0 0.00 0.00 0.00 39 1011.2
20260508030625 67 230 0.0 0.0 0.00 0.00 0.00 37 1011.1
20260508025624 68 230 0.0 0.0 0.00 0.00 0.00 35 1011.0
20260508024612 69 230 0.0 0.0 0.00 0.00 0.00 34 1010.9
20260508023621 71 230 0.0 0.0 0.00 0.00 0.00 31 1010.9
20260508022613 72 230 0.0 0.0 0.00 0.00 0.00 30 1011.0
20260508021623 73 230 0.0 0.0 0.00 0.00 0.00 30 1010.9
20260508020616 74 230 0.0 0.0 0.00 0.00 0.00 28 1010.9
20260508015625 74 230 0.0 0.0 0.00 0.00 0.00 26 1010.9
20260508014617 74 230 0.0 1.7 0.00 0.00 0.00 26 1010.9
20260508013625 74 230 1.7 4.3 0.00 0.00 0.00 27 1010.9
20260508012651 74 360 2.6 4.3 0.00 0.00 0.00 28 1010.9
20260508011617 75 225 1.7 4.3 0.00 0.00 0.00 28 1011.0
20260508010616 75 360 3.5 5.2 0.00 0.00 0.00 27 1011.0
20260508005616 75 217 3.5 7.0 0.00 0.00 0.00 27 1011.1
20260508004623 75 230 3.5 7.0 0.00 0.00 0.00 26 1011.1
20260508003629 75 360 2.6 7.0 0.00 0.00 0.00 27 1011.1
20260508002621 75 360 3.5 7.0 0.00 0.00 0.00 26 1011.1
20260508001645 75 360 3.5 7.8 0.00 0.00 0.00 27 1011.1
20260508000612 75 360 3.5 8.7 0.00 0.00 0.00 29 1011.1
20260507235614 75 157 4.3 7.8 0.00 0.00 0.00 27 1011.1
20260507234626 75 202 3.5 7.8 0.00 0.00 0.00 27 1011.5